Location: Marseilles
(40.7010°N, 83.3930°W)
Time: 15:54:31
(UTC-04:00)

Cosmos 1459 Rocket - Visible Passes

Search period start: 25 July 2014 00:00
Search period end: 04 August 2014 00:00
Orbit: 938 x 1000 km, 83.0° (Epoch: 25 July)

Date Brightness Start Highest point End Pass type
(mag) Time Alt. Az. Time Alt. Az. Time Alt. Az.
25 Jul 4.4 00:46:02 10° N 00:52:08 49° ENE 00:52:31 49° E visible
25 Jul 5.4 02:32:01 10° NNW 02:36:58 25° W 02:37:02 25° W visible
25 Jul 6.0 23:26:55 10° NE 23:29:33 13° ENE 23:31:19 11° E visible
26 Jul 3.9 01:09:24 10° N 01:15:45 85° E 01:15:50 84° ESE visible
26 Jul 6.0 02:57:07 10° NW 03:00:05 14° W 03:00:21 14° W visible
26 Jul 5.5 23:48:46 10° NNE 23:53:36 23° ENE 23:54:38 22° E visible
27 Jul 4.3 01:33:03 10° NNW 01:39:09 56° W 01:39:09 56° W visible
28 Jul 4.7 00:11:36 10° N 00:17:27 38° ENE 00:17:58 38° E visible
28 Jul 5.1 01:57:03 10° NNW 02:02:30 32° W 02:02:30 32° W visible
29 Jul 4.0 00:34:50 10° N 00:41:08 67° E 00:41:19 66° E visible
29 Jul 5.8 02:21:36 10° NW 02:25:42 18° W 02:25:50 18° W visible
29 Jul 5.7 23:14:43 10° NNE 23:18:48 18° ENE 23:20:09 17° E visible
30 Jul 4.0 00:58:21 10° N 01:04:40 73° W 01:04:40 73° W visible
30 Jul 5.0 23:37:15 10° NNE 23:42:44 30° ENE 23:43:31 29° E visible
31 Jul 4.7 01:22:11 10° NNW 01:28:03 42° W 01:28:03 42° W visible
01 Aug 4.3 00:00:19 10° N 00:06:30 52° ENE 00:06:54 51° E visible
01 Aug 5.5 01:46:25 10° NNW 01:51:18 24° W 01:51:25 24° W visible
01 Aug 5.9 22:40:59 10° NE 22:43:57 13° ENE 22:45:46 12° E visible
02 Aug 3.9 00:23:43 10° N 00:30:06 88° E 00:30:17 85° SSE visible
02 Aug 6.1 02:11:39 10° NW 02:14:23 13° W 02:14:49 13° W visible
02 Aug 5.3 23:03:00 10° NNE 23:07:59 24° ENE 23:09:10 22° E visible
03 Aug 4.4 00:47:24 10° NNW 00:53:34 54° W 00:53:41 54° W visible
03 Aug 4.6 23:25:53 10° N 23:31:50 40° ENE 23:32:35 39° E visible
